Location: Home
(42.5358°N, 72.7383°W)
Time: 19:00:28
(UTC-05:00)

Transit 4A - Pass Details

Date: 04 December 2021
Orbit: 863 x 981 km, 66.8° (Epoch: 23 January)

Event Time Altitude Azimuth Distance (km) Brightness Sun altitude
Rises 20:16:05 0° 246° (WSW) 3,462 11.5 -43.1°
Reaches altitude 10° 20:18:55 10° 258° (WSW) 2,541 10.7 -43.6°
Enters shadow 20:20:47 18° 272° (W) 2,038 10.1 -43.9°
Maximum altitude 20:23:52 27° 315° (NW) 1,652 - -44.5°
Drops below altitude 10° 20:28:57 10° 13° (NNE) 2,615 - -45.4°
Sets 20:31:56 0° 25° (NNE) 3,582 - -45.9°
